Regional Weather Roundup
Issued by NWS

Home | Current Version | Previous Version | Text Only | Print | Product List | Glossary Off
Versions: 1 2 3 4 5 6 7 8 9 10 11 12 13 14 15 16 17 18 19 20 21 22 23 24 25 26 27

000
ASUS45 KTFX 292110
RWRMT
MONTANA REGIONAL WEATHER ROUNDUP
NATIONAL WEATHER SERVICE GREAT FALLS MT
300 PM MDT FRI APR 29 2016

NOTE: "FAIR" INDICATES FEW OR NO CLOUDS BELOW 12000 FEET WITH NO
SIGNIFICANT WEATHER AND/OR OBSTRUCTIONS TO VISIBILITY.

MTZ001>007-043-292200-
WEST OF THE DIVIDE

CITY           SKY/WX    TMP DP  RH WIND       PRES   REMARKS
KALISPELL      CLOUDY    50  32  50 CALM      29.92S
MISSOULA       CLOUDY    52  31  44 NW3       29.91R
BUTTE          CLOUDY    47  28  47 VRB3      29.86F
MULLAN PASS    CLOUDY    37  27  67 CALM      29.91R
ANACONDA         N/A     48  28  46 CALM      29.86S
DEER LODGE       N/A     52  28  40 CALM      29.88S
EUREKA           N/A     52  32  46 SE6       29.94R
HAMILTON         N/A     50  34  53 N3        29.89F
LIBBY            N/A     50  34  53 NW3       29.94S
PLAINS           N/A     55  33  43 CALM      29.93F
$$

MTZ008-052>055-292200-
SOUTHWEST MONTANA

CITY           SKY/WX    TMP DP  RH WIND       PRES   REMARKS
BOZEMAN        SUNNY     55  33  43 NE7       29.87F
DILLON         MOSUNNY   49  30  48 S6        29.83F
ENNIS          CLOUDY    52  32  46 N9        29.89F
THREE FORKS      N/A     53  14  21 NW2       29.88
TWIN BRIDGES     N/A     53  26  35 N6        29.86F
$$

MTZ009-010-012-014-046-048-049-054-292200-
EAST SLOPES AND CENTRAL MONTANA

CITY           SKY/WX    TMP DP  RH WIND       PRES   REMARKS
CUT BANK       CLOUDY    46  30  53 S6G20     29.95S
GREAT FALLS    CLOUDY    51  28  41 N7        29.93S
HELENA         CLOUDY    54  27  35 N7        29.89F
CHOTEAU          N/A     48  30  49 E5G14     29.94F
CONRAD           N/A     49  37  63 E8        29.98S
$$

MTZ011-013-016-021-045-047-050-051-292200-
NORTH CENTRAL MONTANA

CITY           SKY/WX    TMP DP  RH WIND       PRES   REMARKS
HAVRE          CLOUDY    54  35  48 E16G24    29.98F
N BAR RANCH    CLOUDY    43  32  65 SE10      30.01R
CHINOOK          N/A     55  36  47 E16G22    30.01F
$$

MTZ017>020-022>027-061-062-292200-
NORTHEAST MONTANA

CITY           SKY/WX    TMP DP  RH WIND       PRES   REMARKS
GLASGOW        CLOUDY    55  31  39 S15       30.07R
JORDAN           N/A     53  35  50 E14       30.02F
SIDNEY         MOSUNNY   59  30  33 SE10      30.10F
WOLF POINT     MOSUNNY   59  31  34 S10G20    30.09S
PLENTYWOOD       N/A     57  25  28 SE17G38   30.10S
POPLAR           N/A     55  27  33 E13G20    30.10R
SCOBEY           N/A     59  25  27 SE13      30.07F
$$

MTZ028>42-056>058-292200-
SOUTHCENTRAL AND SOUTHEAST MONTANA

CITY           SKY/WX    TMP DP  RH WIND       PRES   REMARKS
BAKER          CLOUDY    52  32  46 SE17G26   30.09R
BILLINGS       CLOUDY    49  31  49 E9        29.97S
LIVINGSTON     CLOUDY    47  32  56 E17       29.91F
MILES CITY     CLOUDY    52  34  50 E14       30.04R
EKALAKA          N/A     45  33  62 E12       30.04S
FORSYTH          N/A     52  34  50 SE9       30.01S
LAUREL           N/A     50  31  48 NE9       29.95F
ROUNDUP          N/A     48  31  52 NE8       29.91S
$$

REGIONAL REPORTS...DAKOTAS

CITY           SKY/WX    TMP DP  RH WIND       PRES   REMARKS
WILLISTON      PTSUNNY   57  26  30 SE12      30.11F
MINOT          SUNNY     66  21  18 E14G21    30.13S
DICKINSON      PTSUNNY   55  26  32 E12       30.08S
BEACH          CLOUDY    55  28  35 E16       30.12S
CROSBY           N/A     59  21  23 E15G22    30.14F
WATFORD CITY     N/A     59  25  27 E12G18    30.10F
BISMARCK       SUNNY     61  34  36 E16G22    30.11F
GRAND FORKS    MOSUNNY   63  32  31 NE17G28   30.13F
FARGO          SUNNY     65  31  28 E10       30.09F
BUFFALO SD       N/A     49  33  54 E14       30.03R
RAPID CITY     CLOUDY    44  34  67 E9        30.07F
$$

REGIONAL REPORTS...WYOMING/IDAHO/WASHINGTON

CITY           SKY/WX    TMP DP  RH WIND       PRES   REMARKS
GILLETTE       CLOUDY    46  33  60 N9        29.98F
SHERIDAN       CLOUDY    46  32  58 SE9       29.98S
BUFFALO WY       N/A    N/A N/A N/A MISG      29.99R
CODY           CLOUDY    45  30  57 E7        29.93R
YELLOWSTONE LA   N/A     42  16  34 SE6       29.88F
IDAHO FALLS    PTSUNNY   51  35  54 W9        29.85F
SALMON         CLOUDY    52  34  50 W3        29.83F
BOISE          PTSUNNY   60  37  42 NW16      29.86F
SPOKANE        LGT RAIN  49  41  74 VRB3      29.95S
$$

REGIONAL REPORTS...ALBERTA

CITY           SKY/WX    TMP DP  RH WIND       PRES   REMARKS
EDMONTON       MOSUNNY   63  30  29 SE17G32   29.95S
CALGARY        CLOUDY    50  30  46 SE17      29.96R
LETHBRIDGE     CLOUDY    48  34  57 SE7       29.96S
MEDICINE HAT   CLOUDY    55  36  47 SW8       30.00F
$$

REGIONAL REPORTS...SASKATCHEWAN

CITY           SKY/WX    TMP DP  RH WIND       PRES   REMARKS
SWIFT CURRENT  PTSUNNY   59  21  23 S17G25    30.05F
REGINA         MOSUNNY   63  10  13 S17       30.13F
SASKATOON      SUNNY     64  16  15 SE21G31   30.14S
$$




USA.gov is the U.S. government's official web portal to all federal, state and local government web resources and services.